Time,TemperatureF,DewpointF,PressureIn,WindDirection,WindDirectionDegrees,WindSpeedMPH,WindSpeedGustMPH,Humidity,HourlyPrecipIn,Conditions,Clouds,dailyrainin,SoftwareType,DateUTC
2013-09-03 00:02:00,79.3,74.7,29.83,SSW,202,0.0,0.0,86,0.00,,,0.72,WeatherCatV1.15B25,2013-09-03 05:02:00,
2013-09-03 00:07:00,79.2,75.0,29.83,SSW,202,0.0,0.0,87,0.00,,,0.72,WeatherCatV1.15B25,2013-09-03 05:07:00,
2013-09-03 00:12:00,79.2,75.0,29.83,SSW,202,0.0,0.0,87,0.00,,,0.72,WeatherCatV1.15B25,2013-09-03 05:12:00,
2013-09-03 00:17:00,79.1,74.9,29.83,SSW,202,0.0,0.0,87,0.00,,,0.72,WeatherCatV1.15B25,2013-09-03 05:17:00,
2013-09-03 00:22:00,79.0,74.8,29.83,SSW,202,0.0,0.0,87,0.00,,,0.72,WeatherCatV1.15B25,2013-09-03 05:22:00,
2013-09-03 00:27:00,78.9,74.7,29.83,SSW,202,0.0,0.0,87,0.00,,,0.72,WeatherCatV1.15B25,2013-09-03 05:27:00,
2013-09-03 00:32:00,78.8,74.9,29.83,SSW,202,0.0,0.0,88,0.00,,,0.72,WeatherCatV1.15B25,2013-09-03 05:32:00,
2013-09-03 00:37:00,78.8,74.9,29.83,SSW,202,0.0,0.0,88,0.00,,,0.72,WeatherCatV1.15B25,2013-09-03 05:37:00,
2013-09-03 00:43:00,78.7,74.8,29.83,SSW,202,0.0,0.0,88,0.00,,,0.72,WeatherCatV1.15B25,2013-09-03 05:43:00,
2013-09-03 00:48:00,78.7,74.8,29.83,SSW,202,0.0,0.0,88,0.00,,,0.72,WeatherCatV1.15B25,2013-09-03 05:48:00,
2013-09-03 00:53:00,78.7,74.8,29.83,SSW,202,0.0,0.0,88,0.00,,,0.72,WeatherCatV1.15B25,2013-09-03 05:53:00,
2013-09-03 00:58:00,78.7,75.2,29.83,SSW,202,0.0,0.0,89,0.00,,,0.72,WeatherCatV1.15B25,2013-09-03 05:58:00,
2013-09-03 01:03:00,78.6,74.7,29.83,SSW,202,0.0,0.0,88,0.00,,,0.72,WeatherCatV1.15B25,2013-09-03 06:03:00,
2013-09-03 01:08:00,78.5,74.6,29.83,SSW,202,0.0,0.0,88,0.00,,,0.72,WeatherCatV1.15B25,2013-09-03 06:08:00,
2013-09-03 01:13:00,78.5,75.0,29.83,SSW,202,0.0,0.0,89,0.00,,,0.72,WeatherCatV1.15B25,2013-09-03 06:13:00,
2013-09-03 01:18:00,78.5,75.0,29.83,SSW,202,0.0,0.0,89,0.00,,,0.72,WeatherCatV1.15B25,2013-09-03 06:18:00,
2013-09-03 01:23:00,78.5,75.0,29.83,SSW,202,0.0,0.0,89,0.00,,,0.72,WeatherCatV1.15B25,2013-09-03 06:23:00,
2013-09-03 01:28:00,78.4,74.9,29.83,SSW,202,0.0,0.0,89,0.00,,,0.72,WeatherCatV1.15B25,2013-09-03 06:28:00,
2013-09-03 01:33:00,78.4,74.9,29.83,SSW,202,0.0,0.0,89,0.00,,,0.72,WeatherCatV1.15B25,2013-09-03 06:33:00,
2013-09-03 01:38:00,78.4,74.5,29.83,SSW,202,0.0,0.0,88,0.00,,,0.72,WeatherCatV1.15B25,2013-09-03 06:38:00,
2013-09-03 01:43:00,78.4,74.2,29.83,SSW,203,0.0,0.0,87,0.00,,,0.72,WeatherCatV1.15B25,2013-09-03 06:43:00,
2013-09-03 01:48:00,78.5,74.3,29.83,SSW,203,0.0,1.0,87,0.00,,,0.72,WeatherCatV1.15B25,2013-09-03 06:48:00,
2013-09-03 01:53:00,78.6,74.4,29.83,NW,311,1.0,1.0,87,0.00,,,0.72,WeatherCatV1.15B25,2013-09-03 06:53:00,
2013-09-03 01:58:00,78.7,74.5,29.83,North,10,1.0,3.0,87,0.00,,,0.72,WeatherCatV1.15B25,2013-09-03 06:58:00,
2013-09-03 02:03:00,78.9,74.7,29.83,North,350,0.0,0.0,87,0.00,,,0.72,WeatherCatV1.15B25,2013-09-03 07:03:00,
2013-09-03 02:08:00,79.0,74.8,29.83,North,0,2.0,2.0,87,0.00,,,0.72,WeatherCatV1.15B25,2013-09-03 07:08:00,
2013-09-03 02:13:00,79.1,74.9,29.83,NNE,29,0.0,2.0,87,0.00,,,0.72,WeatherCatV1.15B25,2013-09-03 07:13:00,
2013-09-03 02:18:00,79.1,74.9,29.83,NE,38,0.0,0.0,87,0.00,,,0.72,WeatherCatV1.15B25,2013-09-03 07:18:00,
2013-09-03 02:23:00,79.1,74.9,29.83,NE,38,0.0,0.0,87,0.00,,,0.72,WeatherCatV1.15B25,2013-09-03 07:23:00,
2013-09-03 02:28:00,79.1,74.9,29.83,NE,38,0.0,0.0,87,0.00,,,0.72,WeatherCatV1.15B25,2013-09-03 07:28:00,
2013-09-03 02:33:00,79.0,74.8,29.83,NE,38,0.0,0.0,87,0.00,,,0.72,WeatherCatV1.15B25,2013-09-03 07:33:00,
2013-09-03 02:38:00,79.0,74.8,29.83,NE,38,0.0,1.0,87,0.00,,,0.72,WeatherCatV1.15B25,2013-09-03 07:38:00,
2013-09-03 02:43:00,78.9,74.7,29.83,NE,38,0.0,0.0,87,0.00,,,0.72,WeatherCatV1.15B25,2013-09-03 07:43:00,
2013-09-03 02:48:00,78.9,74.7,29.83,NE,38,0.0,2.0,87,0.00,,,0.72,WeatherCatV1.15B25,2013-09-03 07:48:00,
2013-09-03 02:53:00,78.8,74.2,29.83,NE,40,2.0,2.0,86,0.00,,,0.72,WeatherCatV1.15B25,2013-09-03 07:53:00,
2013-09-03 02:58:00,78.6,73.7,29.83,NE,40,0.0,0.0,85,0.00,,,0.72,WeatherCatV1.15B25,2013-09-03 07:58:00,
2013-09-03 03:03:00,78.5,72.9,29.83,NE,40,0.0,0.0,83,0.00,,,0.72,WeatherCatV1.15B25,2013-09-03 08:03:00,
2013-09-03 03:08:00,78.4,72.8,29.83,NE,40,0.0,0.0,83,0.00,,,0.72,WeatherCatV1.15B25,2013-09-03 08:08:00,
2013-09-03 03:13:00,78.3,72.7,29.83,NE,40,0.0,0.0,83,0.00,,,0.72,WeatherCatV1.15B25,2013-09-03 08:13:00,
2013-09-03 03:18:00,78.3,72.3,29.83,NE,40,0.0,0.0,82,0.00,,,0.72,WeatherCatV1.15B25,2013-09-03 08:18:00,
2013-09-03 03:23:00,78.1,72.1,29.83,NE,40,0.0,0.0,82,0.00,,,0.72,WeatherCatV1.15B25,2013-09-03 08:23:00,
2013-09-03 03:28:00,78.0,72.0,29.83,NE,40,0.0,0.0,82,0.00,,,0.72,WeatherCatV1.15B25,2013-09-03 08:28:00,
2013-09-03 03:33:00,77.9,71.9,29.83,NE,40,0.0,0.0,82,0.00,,,0.72,WeatherCatV1.15B25,2013-09-03 08:33:00,
2013-09-03 03:38:00,77.8,71.8,29.83,NE,40,0.0,0.0,82,0.00,,,0.72,WeatherCatV1.15B25,2013-09-03 08:38:00,
2013-09-03 03:43:00,77.6,71.7,29.83,NE,40,0.0,0.0,82,0.00,,,0.72,WeatherCatV1.15B25,2013-09-03 08:43:00,
2013-09-03 03:48:00,77.5,71.2,29.83,NE,40,0.0,0.0,81,0.00,,,0.72,WeatherCatV1.15B25,2013-09-03 08:48:00,
2013-09-03 03:53:00,77.4,70.7,29.83,NE,40,0.0,0.0,80,0.00,,,0.72,WeatherCatV1.15B25,2013-09-03 08:53:00,
2013-09-03 03:58:00,77.2,70.2,29.83,NE,40,0.0,0.0,79,0.00,,,0.72,WeatherCatV1.15B25,2013-09-03 08:58:00,
2013-09-03 04:03:00,77.1,70.4,29.84,NE,40,0.0,0.0,80,0.00,,,0.72,WeatherCatV1.15B25,2013-09-03 09:03:00,
2013-09-03 04:08:00,77.1,70.1,29.84,NE,40,0.0,1.0,79,0.00,,,0.72,WeatherCatV1.15B25,2013-09-03 09:08:00,
2013-09-03 04:13:00,77.0,70.3,29.84,NE,40,0.0,0.0,80,0.00,,,0.72,WeatherCatV1.15B25,2013-09-03 09:13:00,
2013-09-03 04:18:00,77.0,70.3,29.84,NE,40,0.0,0.0,80,0.00,,,0.72,WeatherCatV1.15B25,2013-09-03 09:18:00,
2013-09-03 04:23:00,76.9,69.9,29.84,NE,40,0.0,0.0,79,0.00,,,0.72,WeatherCatV1.15B25,2013-09-03 09:23:00,
2013-09-03 04:28:00,76.9,69.9,29.84,NE,40,0.0,0.0,79,0.00,,,0.72,WeatherCatV1.15B25,2013-09-03 09:28:00,
2013-09-03 04:33:00,76.7,69.3,29.84,NE,40,0.0,0.0,78,0.00,,,0.72,WeatherCatV1.15B25,2013-09-03 09:33:00,
2013-09-03 04:38:00,76.7,69.3,29.84,NE,40,0.0,0.0,78,0.00,,,0.72,WeatherCatV1.15B25,2013-09-03 09:38:00,
2013-09-03 04:43:00,76.6,69.2,29.84,NE,40,0.0,0.0,78,0.00,,,0.72,WeatherCatV1.15B25,2013-09-03 09:43:00,
2013-09-03 04:48:00,76.5,69.1,29.84,NE,40,0.0,0.0,78,0.00,,,0.72,WeatherCatV1.15B25,2013-09-03 09:48:00,
2013-09-03 04:53:00,76.4,69.0,29.84,NE,40,0.0,0.0,78,0.00,,,0.72,WeatherCatV1.15B25,2013-09-03 09:53:00,
2013-09-03 04:58:00,76.4,69.4,29.84,NE,40,0.0,0.0,79,0.00,,,0.72,WeatherCatV1.15B25,2013-09-03 09:58:00,
2013-09-03 05:03:00,76.2,69.2,29.84,NE,40,1.0,2.0,79,0.00,,,0.72,WeatherCatV1.15B25,2013-09-03 10:03:00,
2013-09-03 05:08:00,76.1,69.1,29.84,NE,40,0.0,0.0,79,0.00,,,0.72,WeatherCatV1.15B25,2013-09-03 10:08:00,
2013-09-03 05:13:00,76.0,68.6,29.84,NE,40,1.0,2.0,78,0.00,,,0.72,WeatherCatV1.15B25,2013-09-03 10:13:00,
2013-09-03 05:18:00,75.9,68.5,29.84,NE,40,0.0,0.0,78,0.00,,,0.72,WeatherCatV1.15B25,2013-09-03 10:18:00,
2013-09-03 05:23:00,75.8,68.1,29.84,NE,40,0.0,1.0,77,0.00,,,0.72,WeatherCatV1.15B25,2013-09-03 10:23:00,
2013-09-03 05:28:00,75.8,68.1,29.84,NE,40,0.0,0.0,77,0.00,,,0.72,WeatherCatV1.15B25,2013-09-03 10:28:00,
2013-09-03 05:33:00,75.7,68.3,29.85,NE,40,0.0,0.0,78,0.00,,,0.72,WeatherCatV1.15B25,2013-09-03 10:33:00,
2013-09-03 05:38:00,75.7,68.3,29.85,NE,44,0.0,0.0,78,0.00,,,0.72,WeatherCatV1.15B25,2013-09-03 10:38:00,
2013-09-03 05:43:00,75.6,68.2,29.85,NE,44,0.0,0.0,78,0.00,,,0.72,WeatherCatV1.15B25,2013-09-03 10:43:00,
2013-09-03 05:48:00,75.5,68.1,29.85,NE,51,1.0,4.0,78,0.00,,,0.72,WeatherCatV1.15B25,2013-09-03 10:48:00,
2013-09-03 05:53:00,75.4,68.0,29.85,NE,56,0.0,5.0,78,0.00,,,0.72,WeatherCatV1.15B25,2013-09-03 10:53:00,
2013-09-03 05:58:00,75.3,67.6,29.85,NE,55,0.0,0.0,77,0.00,,,0.72,WeatherCatV1.15B25,2013-09-03 10:58:00,
2013-09-03 06:03:00,75.3,67.6,29.84,NNE,24,0.0,0.0,77,0.00,,,0.72,WeatherCatV1.15B25,2013-09-03 11:03:00,
2013-09-03 06:08:00,75.3,67.6,29.84,NNE,24,0.0,0.0,77,0.00,,,0.72,WeatherCatV1.15B25,2013-09-03 11:08:00,
2013-09-03 06:13:00,75.2,67.1,29.84,NNE,24,0.0,0.0,76,0.00,,,0.72,WeatherCatV1.15B25,2013-09-03 11:13:00,
2013-09-03 06:18:00,75.3,67.6,29.85,NNE,24,0.0,0.0,77,0.00,,,0.72,WeatherCatV1.15B25,2013-09-03 11:18:00,
2013-09-03 06:23:00,75.3,67.9,29.85,NNE,24,0.0,2.0,78,0.00,,,0.72,WeatherCatV1.15B25,2013-09-03 11:23:00,
2013-09-03 06:28:00,75.1,67.4,29.85,NNE,19,0.0,1.0,77,0.00,,,0.72,WeatherCatV1.15B25,2013-09-03 11:28:00,
2013-09-03 06:33:00,75.1,67.4,29.85,NNE,30,0.0,1.0,77,0.00,,,0.72,WeatherCatV1.15B25,2013-09-03 11:33:00,
2013-09-03 06:38:00,75.0,67.3,29.85,NNE,27,0.0,1.0,77,0.00,,,0.72,WeatherCatV1.15B25,2013-09-03 11:38:00,
2013-09-03 06:43:00,74.9,67.6,29.85,NNE,27,0.0,0.0,78,0.00,,,0.72,WeatherCatV1.15B25,2013-09-03 11:43:00,
2013-09-03 06:48:00,74.9,67.2,29.86,NNE,27,0.0,0.0,77,0.00,,,0.72,WeatherCatV1.15B25,2013-09-03 11:48:00,
2013-09-03 06:53:00,74.8,67.1,29.86,NNE,27,0.0,0.0,77,0.00,,,0.72,WeatherCatV1.15B25,2013-09-03 11:53:00,
2013-09-03 06:58:00,74.7,66.6,29.86,NNE,27,0.0,0.0,76,0.00,,,0.72,WeatherCatV1.15B25,2013-09-03 11:58:00,
2013-09-03 07:03:00,74.7,67.0,29.86,NNE,27,0.0,0.0,77,0.00,,,0.72,WeatherCatV1.15B25,2013-09-03 12:03:00,
2013-09-03 07:08:00,74.6,67.3,29.86,NNE,27,0.0,0.0,78,0.00,,,0.72,WeatherCatV1.15B25,2013-09-03 12:08:00,
2013-09-03 07:13:00,74.5,67.5,29.86,NNE,27,0.0,0.0,79,0.00,,,0.72,WeatherCatV1.15B25,2013-09-03 12:13:00,
2013-09-03 07:18:00,74.4,67.4,29.86,NNE,27,0.0,0.0,79,0.00,,,0.72,WeatherCatV1.15B25,2013-09-03 12:18:00,
2013-09-03 07:23:00,74.3,67.4,29.86,NNE,14,0.0,0.0,79,0.00,,,0.72,WeatherCatV1.15B25,2013-09-03 12:23:00,
2013-09-03 07:28:00,74.3,67.4,29.86,NE,43,0.0,1.0,79,0.00,,,0.72,WeatherCatV1.15B25,2013-09-03 12:28:00,
2013-09-03 07:33:00,74.2,66.5,29.87,NE,43,0.0,0.0,77,0.00,,,0.72,WeatherCatV1.15B25,2013-09-03 12:33:00,
2013-09-03 07:38:00,74.2,66.5,29.87,NE,42,0.0,4.0,77,0.00,,,0.72,WeatherCatV1.15B25,2013-09-03 12:38:00,
2013-09-03 07:43:00,74.3,66.6,29.87,NE,42,0.0,2.0,77,0.00,,,0.72,WeatherCatV1.15B25,2013-09-03 12:43:00,
2013-09-03 07:48:00,74.4,67.1,29.87,NE,42,0.0,0.0,78,0.00,,,0.72,WeatherCatV1.15B25,2013-09-03 12:48:00,
2013-09-03 07:53:00,74.4,67.1,29.87,NE,42,0.0,0.0,78,0.00,,,0.72,WeatherCatV1.15B25,2013-09-03 12:53:00,
2013-09-03 07:58:00,74.6,67.3,29.87,NE,42,0.0,0.0,78,0.00,,,0.72,WeatherCatV1.15B25,2013-09-03 12:58:00,
2013-09-03 08:03:00,74.7,67.4,29.88,NE,42,0.0,0.0,78,0.00,,,0.72,WeatherCatV1.15B25,2013-09-03 13:03:00,
2013-09-03 08:08:00,74.8,67.5,29.88,NE,40,0.0,0.0,78,0.00,,,0.72,WeatherCatV1.15B25,2013-09-03 13:08:00,
2013-09-03 08:13:00,74.9,67.2,29.88,NE,42,0.0,3.0,77,0.00,,,0.72,WeatherCatV1.15B25,2013-09-03 13:13:00,
2013-09-03 08:18:00,75.2,67.5,29.88,NNE,32,0.0,1.0,77,0.00,,,0.72,WeatherCatV1.15B25,2013-09-03 13:18:00,
2013-09-03 08:23:00,75.4,67.3,29.88,NE,49,0.0,1.0,76,0.00,,,0.72,WeatherCatV1.15B25,2013-09-03 13:23:00,
2013-09-03 08:28:00,75.6,67.1,29.88,NE,45,1.0,5.0,75,0.00,,,0.72,WeatherCatV1.15B25,2013-09-03 13:28:00,
2013-09-03 08:33:00,75.9,67.4,29.88,NNE,12,0.0,0.0,75,0.00,,,0.72,WeatherCatV1.15B25,2013-09-03 13:33:00,
2013-09-03 08:38:00,76.2,67.7,29.88,NNE,23,0.0,4.0,75,0.00,,,0.72,WeatherCatV1.15B25,2013-09-03 13:38:00,
2013-09-03 08:43:00,76.4,67.9,29.88,NNE,22,0.0,2.0,75,0.00,,,0.72,WeatherCatV1.15B25,2013-09-03 13:43:00,
2013-09-03 08:48:00,76.8,67.5,29.88,NNE,29,3.0,6.0,73,0.00,,,0.72,WeatherCatV1.15B25,2013-09-03 13:48:00,
2013-09-03 08:53:00,77.1,67.8,29.88,North,11,1.0,4.0,73,0.00,,,0.72,WeatherCatV1.15B25,2013-09-03 13:53:00,
2013-09-03 08:58:00,77.5,67.7,29.88,North,5,0.0,1.0,72,0.00,,,0.72,WeatherCatV1.15B25,2013-09-03 13:58:00,
2013-09-03 09:03:00,77.8,68.0,29.89,North,5,0.0,0.0,72,0.00,,,0.72,WeatherCatV1.15B25,2013-09-03 14:03:00,
2013-09-03 09:08:00,78.0,67.8,29.89,North,5,0.0,0.0,71,0.00,,,0.72,WeatherCatV1.15B25,2013-09-03 14:08:00,
2013-09-03 09:13:00,78.4,68.2,29.89,NE,43,3.0,3.0,71,0.00,,,0.72,WeatherCatV1.15B25,2013-09-03 14:13:00,
2013-09-03 09:18:00,78.8,68.6,29.89,NNE,15,1.0,3.0,71,0.00,,,0.72,WeatherCatV1.15B25,2013-09-03 14:18:00,
2013-09-03 09:23:00,79.3,68.2,29.89,NNE,14,3.0,3.0,69,0.00,,,0.72,WeatherCatV1.15B25,2013-09-03 14:23:00,
2013-09-03 09:28:00,79.7,68.2,29.89,North,11,0.0,2.0,68,0.00,,,0.72,WeatherCatV1.15B25,2013-09-03 14:28:00,
2013-09-03 09:33:00,80.2,69.1,29.89,NE,36,1.0,5.0,69,0.00,,,0.72,WeatherCatV1.15B25,2013-09-03 14:33:00,
2013-09-03 09:38:00,80.7,69.1,29.89,NE,43,0.0,0.0,68,0.00,,,0.72,WeatherCatV1.15B25,2013-09-03 14:38:00,
2013-09-03 09:43:00,81.2,69.6,29.89,WNW,284,0.0,3.0,68,0.00,,,0.72,WeatherCatV1.15B25,2013-09-03 14:43:00,
2013-09-03 09:48:00,81.7,70.1,29.89,NNW,338,0.0,0.0,68,0.00,,,0.72,WeatherCatV1.15B25,2013-09-03 14:48:00,
2013-09-03 09:53:00,82.1,70.9,29.89,NE,34,3.0,4.0,69,0.00,,,0.72,WeatherCatV1.15B25,2013-09-03 14:53:00,
2013-09-03 09:58:00,82.6,70.5,29.89,NE,34,0.0,1.0,67,0.00,,,0.72,WeatherCatV1.15B25,2013-09-03 14:58:00,
2013-09-03 10:03:00,83.0,70.4,29.89,North,355,3.0,4.0,66,0.00,,,0.72,WeatherCatV1.15B25,2013-09-03 15:03:00,
2013-09-03 10:08:00,83.4,71.3,29.89,WSW,252,0.0,1.0,67,0.00,,,0.72,WeatherCatV1.15B25,2013-09-03 15:08:00,
2013-09-03 10:13:00,83.9,70.8,29.89,NNW,328,0.0,1.0,65,0.00,,,0.72,WeatherCatV1.15B25,2013-09-03 15:13:00,
2013-09-03 10:18:00,84.5,71.4,29.89,West,267,0.0,4.0,65,0.00,,,0.72,WeatherCatV1.15B25,2013-09-03 15:18:00,
2013-09-03 10:23:00,85.1,71.5,29.89,ENE,57,0.0,0.0,64,0.00,,,0.72,WeatherCatV1.15B25,2013-09-03 15:23:00,
2013-09-03 10:28:00,85.9,71.8,29.89,NNW,337,0.0,1.0,63,0.00,,,0.72,WeatherCatV1.15B25,2013-09-03 15:28:00,
2013-09-03 10:33:00,86.8,71.7,29.89,NNW,338,0.0,1.0,61,0.00,,,0.72,WeatherCatV1.15B25,2013-09-03 15:33:00,
2013-09-03 10:38:00,87.5,72.4,29.89,WNW,286,0.0,5.0,61,0.00,,,0.72,WeatherCatV1.15B25,2013-09-03 15:38:00,
2013-09-03 10:43:00,88.1,72.4,29.89,NE,36,0.0,3.0,60,0.00,,,0.72,WeatherCatV1.15B25,2013-09-03 15:43:00,
2013-09-03 10:48:00,88.7,72.5,29.89,NW,323,0.0,1.0,59,0.00,,,0.72,WeatherCatV1.15B25,2013-09-03 15:48:00,
2013-09-03 10:53:00,89.3,72.5,29.89,NE,42,0.0,4.0,58,0.00,,,0.72,WeatherCatV1.15B25,2013-09-03 15:53:00,
2013-09-03 10:58:00,89.8,72.0,29.89,North,0,0.0,1.0,56,0.00,,,0.72,WeatherCatV1.15B25,2013-09-03 15:58:00,
2013-09-03 11:03:00,90.2,71.8,29.90,NW,307,0.0,5.0,55,0.00,,,0.72,WeatherCatV1.15B25,2013-09-03 16:03:00,
2013-09-03 11:08:00,90.6,71.6,29.90,West,267,0.0,0.0,54,0.00,,,0.72,WeatherCatV1.15B25,2013-09-03 16:08:00,
2013-09-03 11:13:00,90.9,71.9,29.90,West,281,2.0,5.0,54,0.00,,,0.72,WeatherCatV1.15B25,2013-09-03 16:13:00,
2013-09-03 11:18:00,91.2,72.2,29.90,West,277,0.0,4.0,54,0.00,,,0.72,WeatherCatV1.15B25,2013-09-03 16:18:00,
2013-09-03 11:23:00,91.5,71.3,29.90,West,279,0.0,6.0,52,0.00,,,0.72,WeatherCatV1.15B25,2013-09-03 16:23:00,
2013-09-03 11:28:00,91.8,72.2,29.90,North,9,0.0,1.0,53,0.00,,,0.72,WeatherCatV1.15B25,2013-09-03 16:28:00,
2013-09-03 11:33:00,91.9,71.1,29.89,NNE,18,0.0,1.0,51,0.00,,,0.72,WeatherCatV1.15B25,2013-09-03 16:33:00,
2013-09-03 11:38:00,92.1,71.3,29.89,NW,308,0.0,3.0,51,0.00,,,0.72,WeatherCatV1.15B25,2013-09-03 16:38:00,
2013-09-03 11:43:00,92.4,71.6,29.89,West,274,0.0,1.0,51,0.00,,,0.72,WeatherCatV1.15B25,2013-09-03 16:43:00,
2013-09-03 11:48:00,92.7,72.4,29.89,West,279,0.0,4.0,52,0.00,,,0.72,WeatherCatV1.15B25,2013-09-03 16:48:00,
2013-09-03 11:53:00,93.0,72.7,29.89,West,271,0.0,1.0,52,0.00,,,0.72,WeatherCatV1.15B25,2013-09-03 16:53:00,
2013-09-03 11:58:00,93.5,72.0,29.89,NNW,339,0.0,6.0,50,0.00,,,0.72,WeatherCatV1.15B25,2013-09-03 16:58:00,
2013-09-03 12:03:00,93.8,72.9,29.89,NW,323,0.0,1.0,51,0.00,,,0.72,WeatherCatV1.15B25,2013-09-03 17:03:00,
2013-09-03 12:08:00,94.0,73.6,29.89,WNW,286,0.0,1.0,52,0.00,,,0.72,WeatherCatV1.15B25,2013-09-03 17:08:00,
2013-09-03 12:13:00,94.3,72.2,29.89,West,275,0.0,4.0,49,0.00,,,0.72,WeatherCatV1.15B25,2013-09-03 17:13:00,
2013-09-03 12:18:00,94.4,72.2,29.89,NW,309,0.0,1.0,49,0.00,,,0.72,WeatherCatV1.15B25,2013-09-03 17:18:00,
2013-09-03 12:23:00,94.7,72.5,29.89,West,273,2.0,3.0,49,0.00,,,0.72,WeatherCatV1.15B25,2013-09-03 17:23:00,
2013-09-03 12:28:00,95.0,74.0,29.89,NE,41,0.0,0.0,51,0.00,,,0.72,WeatherCatV1.15B25,2013-09-03 17:28:00,
2013-09-03 12:33:00,95.4,71.9,29.89,NNE,28,4.0,6.0,47,0.00,,,0.72,WeatherCatV1.15B25,2013-09-03 17:33:00,
2013-09-03 12:38:00,95.6,72.7,29.89,ENE,65,4.0,6.0,48,0.00,,,0.72,WeatherCatV1.15B25,2013-09-03 17:38:00,
2013-09-03 12:43:00,95.9,72.4,29.89,NE,55,2.0,5.0,47,0.00,,,0.72,WeatherCatV1.15B25,2013-09-03 17:43:00,
2013-09-03 12:48:00,96.3,72.7,29.88,NNE,26,0.0,4.0,47,0.00,,,0.72,WeatherCatV1.15B25,2013-09-03 17:48:00,
2013-09-03 12:53:00,96.7,73.1,29.88,North,9,0.0,7.0,47,0.00,,,0.72,WeatherCatV1.15B25,2013-09-03 17:53:00,
2013-09-03 12:58:00,97.2,73.5,29.88,NE,49,0.0,2.0,47,0.00,,,0.72,WeatherCatV1.15B25,2013-09-03 17:58:00,
2013-09-03 13:03:00,97.7,74.0,29.87,NE,40,3.0,9.0,47,0.00,,,0.72,WeatherCatV1.15B25,2013-09-03 18:03:00,
2013-09-03 13:08:00,97.9,72.9,29.87,NW,325,4.0,6.0,45,0.00,,,0.72,WeatherCatV1.15B25,2013-09-03 18:08:00,
2013-09-03 13:13:00,98.1,73.1,29.87,North,5,0.0,1.0,45,0.00,,,0.72,WeatherCatV1.15B25,2013-09-03 18:13:00,
2013-09-03 13:18:00,98.2,72.5,29.87,NNE,15,0.0,4.0,44,0.00,,,0.72,WeatherCatV1.15B25,2013-09-03 18:18:00,
2013-09-03 13:23:00,98.4,72.7,29.87,North,355,0.0,7.0,44,0.00,,,0.72,WeatherCatV1.15B25,2013-09-03 18:23:00,
2013-09-03 13:28:00,98.5,72.1,29.87,North,5,0.0,4.0,43,0.00,,,0.72,WeatherCatV1.15B25,2013-09-03 18:28:00,
2013-09-03 13:33:00,98.9,73.1,29.86,North,0,0.0,6.0,44,0.00,,,0.72,WeatherCatV1.15B25,2013-09-03 18:33:00,
2013-09-03 13:38:00,99.1,71.9,29.86,NNE,14,0.0,1.0,42,0.00,,,0.72,WeatherCatV1.15B25,2013-09-03 18:38:00,
2013-09-03 13:43:00,99.1,71.9,29.86,ESE,119,0.0,1.0,42,0.00,,,0.72,WeatherCatV1.15B25,2013-09-03 18:43:00,
2013-09-03 13:48:00,99.0,71.8,29.85,NE,38,2.0,5.0,42,0.00,,,0.72,WeatherCatV1.15B25,2013-09-03 18:48:00,
2013-09-03 13:53:00,99.1,74.0,29.85,North,355,2.0,4.0,45,0.00,,,0.72,WeatherCatV1.15B25,2013-09-03 18:53:00,
2013-09-03 13:58:00,99.3,72.8,29.85,NNW,331,0.0,0.0,43,0.00,,,0.72,WeatherCatV1.15B25,2013-09-03 18:58:00,
2013-09-03 14:03:00,99.4,72.2,29.85,West,281,0.0,6.0,42,0.00,,,0.72,WeatherCatV1.15B25,2013-09-03 19:03:00,
2013-09-03 14:08:00,99.6,72.4,29.85,NNW,347,0.0,0.0,42,0.00,,,0.72,WeatherCatV1.15B25,2013-09-03 19:08:00,
2013-09-03 14:13:00,99.9,71.9,29.85,NNE,28,0.0,1.0,41,0.00,,,0.72,WeatherCatV1.15B25,2013-09-03 19:13:00,
2013-09-03 14:18:00,100.2,73.6,29.85,WSW,258,0.0,0.0,43,0.00,,,0.72,WeatherCatV1.15B25,2013-09-03 19:18:00,
2013-09-03 14:23:00,100.3,74.4,29.85,NNE,33,0.0,0.0,44,0.00,,,0.72,WeatherCatV1.15B25,2013-09-03 19:23:00,
2013-09-03 14:28:00,100.3,71.5,29.85,SSW,210,0.0,1.0,40,0.00,,,0.72,WeatherCatV1.15B25,2013-09-03 19:28:00,
2013-09-03 14:33:00,100.0,72.7,29.84,WSW,251,0.0,5.0,42,0.00,,,0.72,WeatherCatV1.15B25,2013-09-03 19:33:00,
2013-09-03 14:38:00,100.1,72.8,29.84,NE,36,0.0,0.0,42,0.00,,,0.72,WeatherCatV1.15B25,2013-09-03 19:38:00,
2013-09-03 14:43:00,100.6,72.5,29.84,WNW,291,0.0,3.0,41,0.00,,,0.72,WeatherCatV1.15B25,2013-09-03 19:43:00,
2013-09-03 14:48:00,100.8,72.0,29.84,WSW,258,0.0,4.0,40,0.00,,,0.72,WeatherCatV1.15B25,2013-09-03 19:48:00,
2013-09-03 14:53:00,101.0,72.9,29.84,NW,315,0.0,4.0,41,0.00,,,0.72,WeatherCatV1.15B25,2013-09-03 19:53:00,
2013-09-03 14:58:00,101.2,71.6,29.84,WNW,284,4.0,5.0,39,0.00,,,0.72,WeatherCatV1.15B25,2013-09-03 19:58:00,
2013-09-03 15:03:00,101.3,71.7,29.83,SW,229,5.0,5.0,39,0.00,,,0.72,WeatherCatV1.15B25,2013-09-03 20:03:00,
2013-09-03 15:08:00,101.1,71.5,29.83,NW,324,0.0,3.0,39,0.00,,,0.72,WeatherCatV1.15B25,2013-09-03 20:08:00,
2013-09-03 15:13:00,100.9,71.3,29.83,SSW,211,2.0,4.0,39,0.00,,,0.72,WeatherCatV1.15B25,2013-09-03 20:13:00,
2013-09-03 15:18:00,100.8,73.4,29.82,North,9,0.0,0.0,42,0.00,,,0.72,WeatherCatV1.15B25,2013-09-03 20:18:00,
2013-09-03 15:23:00,101.3,73.2,29.82,NE,51,0.0,1.0,41,0.00,,,0.72,WeatherCatV1.15B25,2013-09-03 20:23:00,
2013-09-03 15:28:00,101.7,71.3,29.82,ESE,108,0.0,1.0,38,0.00,,,0.72,WeatherCatV1.15B25,2013-09-03 20:28:00,
2013-09-03 15:33:00,102.1,73.1,29.81,ENE,59,3.0,5.0,40,0.00,,,0.72,WeatherCatV1.15B25,2013-09-03 20:33:00,
2013-09-03 15:38:00,102.2,70.9,29.81,North,355,0.0,4.0,37,0.00,,,0.72,WeatherCatV1.15B25,2013-09-03 20:38:00,
2013-09-03 15:43:00,102.1,72.4,29.81,West,280,1.0,1.0,39,0.00,,,0.72,WeatherCatV1.15B25,2013-09-03 20:43:00,
2013-09-03 15:48:00,102.1,70.0,29.81,WSW,254,0.0,1.0,36,0.00,,,0.72,WeatherCatV1.15B25,2013-09-03 20:48:00,
2013-09-03 15:53:00,102.1,70.8,29.81,NW,321,1.0,1.0,37,0.00,,,0.72,WeatherCatV1.15B25,2013-09-03 20:53:00,
2013-09-03 15:58:00,102.1,70.8,29.81,North,5,0.0,0.0,37,0.00,,,0.72,WeatherCatV1.15B25,2013-09-03 20:58:00,
2013-09-03 16:03:00,102.2,71.7,29.80,NNE,19,0.0,0.0,38,0.00,,,0.72,WeatherCatV1.15B25,2013-09-03 21:03:00,
2013-09-03 16:08:00,102.2,70.1,29.80,WNW,293,0.0,3.0,36,0.00,,,0.72,WeatherCatV1.15B25,2013-09-03 21:08:00,
2013-09-03 16:13:00,102.1,70.8,29.80,North,355,0.0,4.0,37,0.00,,,0.72,WeatherCatV1.15B25,2013-09-03 21:13:00,
2013-09-03 16:18:00,102.3,69.4,29.79,North,5,3.0,5.0,35,0.00,,,0.72,WeatherCatV1.15B25,2013-09-03 21:18:00,
2013-09-03 16:23:00,102.3,69.4,29.79,NE,40,0.0,0.0,35,0.00,,,0.72,WeatherCatV1.15B25,2013-09-03 21:23:00,
2013-09-03 16:28:00,102.5,72.0,29.79,NE,35,0.0,2.0,38,0.00,,,0.72,WeatherCatV1.15B25,2013-09-03 21:28:00,
2013-09-03 16:33:00,102.3,69.4,29.79,NE,50,0.0,1.0,35,0.00,,,0.72,WeatherCatV1.15B25,2013-09-03 21:33:00,
2013-09-03 16:38:00,102.4,71.1,29.79,WSW,257,0.0,1.0,37,0.00,,,0.72,WeatherCatV1.15B25,2013-09-03 21:38:00,
2013-09-03 16:43:00,102.5,70.4,29.79,West,260,0.0,0.0,36,0.00,,,0.72,WeatherCatV1.15B25,2013-09-03 21:43:00,
2013-09-03 16:48:00,102.6,71.3,29.79,WNW,290,0.0,1.0,37,0.00,,,0.72,WeatherCatV1.15B25,2013-09-03 21:48:00,
2013-09-03 16:53:00,102.5,70.4,29.79,West,259,0.0,1.0,36,0.00,,,0.72,WeatherCatV1.15B25,2013-09-03 21:53:00,
2013-09-03 16:58:00,102.3,70.2,29.79,West,281,0.0,0.0,36,0.00,,,0.72,WeatherCatV1.15B25,2013-09-03 21:58:00,
2013-09-03 17:03:00,102.1,70.0,29.78,WNW,296,3.0,3.0,36,0.00,,,0.72,WeatherCatV1.15B25,2013-09-03 22:03:00,
2013-09-03 17:08:00,101.6,69.6,29.78,West,263,0.0,0.0,36,0.00,,,0.72,WeatherCatV1.15B25,2013-09-03 22:08:00,
2013-09-03 17:13:00,101.2,70.0,29.78,WNW,288,0.0,0.0,37,0.00,,,0.72,WeatherCatV1.15B25,2013-09-03 22:13:00,
2013-09-03 17:18:00,101.2,70.8,29.78,WNW,288,0.0,0.0,38,0.00,,,0.72,WeatherCatV1.15B25,2013-09-03 22:18:00,
2013-09-03 17:23:00,100.9,69.8,29.78,WNW,293,0.0,0.0,37,0.00,,,0.72,WeatherCatV1.15B25,2013-09-03 22:23:00,
2013-09-03 17:28:00,100.4,70.1,29.78,SW,227,0.0,0.0,38,0.00,,,0.72,WeatherCatV1.15B25,2013-09-03 22:28:00,
2013-09-03 17:33:00,100.2,69.2,29.78,SW,227,0.0,1.0,37,0.00,,,0.72,WeatherCatV1.15B25,2013-09-03 22:33:00,
2013-09-03 17:38:00,100.0,69.8,29.78,North,355,3.0,4.0,38,0.00,,,0.72,WeatherCatV1.15B25,2013-09-03 22:38:00,
2013-09-03 17:43:00,99.9,69.7,29.78,NW,320,0.0,1.0,38,0.00,,,0.72,WeatherCatV1.15B25,2013-09-03 22:43:00,
2013-09-03 17:48:00,99.7,69.5,29.78,NW,304,0.0,0.0,38,0.00,,,0.72,WeatherCatV1.15B25,2013-09-03 22:48:00,
2013-09-03 17:53:00,99.4,68.5,29.78,WNW,300,0.0,1.0,37,0.00,,,0.72,WeatherCatV1.15B25,2013-09-03 22:53:00,
2013-09-03 17:58:00,99.1,69.7,29.78,WNW,299,0.0,1.0,39,0.00,,,0.72,WeatherCatV1.15B25,2013-09-03 22:58:00,
2013-09-03 18:03:00,98.8,70.2,29.78,WNW,300,0.0,0.0,40,0.00,,,0.72,WeatherCatV1.15B25,2013-09-03 23:03:00,
2013-09-03 18:08:00,98.5,69.9,29.78,WNW,299,0.0,0.0,40,0.00,,,0.72,WeatherCatV1.15B25,2013-09-03 23:08:00,
2013-09-03 18:13:00,98.2,69.7,29.78,WNW,299,0.0,0.0,40,0.00,,,0.72,WeatherCatV1.15B25,2013-09-03 23:13:00,
2013-09-03 18:18:00,97.9,69.4,29.78,WNW,299,0.0,0.0,40,0.00,,,0.72,WeatherCatV1.15B25,2013-09-03 23:18:00,
2013-09-03 18:23:00,97.6,70.6,29.78,WNW,299,0.0,0.0,42,0.00,,,0.72,WeatherCatV1.15B25,2013-09-03 23:23:00,
2013-09-03 18:28:00,97.3,69.6,29.78,WNW,300,0.0,0.0,41,0.00,,,0.72,WeatherCatV1.15B25,2013-09-03 23:28:00,
2013-09-03 18:33:00,97.0,68.6,29.78,WNW,300,0.0,1.0,40,0.00,,,0.72,WeatherCatV1.15B25,2013-09-03 23:33:00,
2013-09-03 18:38:00,96.7,68.3,29.78,WNW,300,0.0,0.0,40,0.00,,,0.72,WeatherCatV1.15B25,2013-09-03 23:38:00,
2013-09-03 18:43:00,96.4,68.8,29.78,WNW,300,0.0,0.0,41,0.00,,,0.72,WeatherCatV1.15B25,2013-09-03 23:43:00,
2013-09-03 18:48:00,96.1,69.9,29.78,WNW,299,0.0,0.0,43,0.00,,,0.72,WeatherCatV1.15B25,2013-09-03 23:48:00,
2013-09-03 18:53:00,95.8,70.3,29.78,WNW,300,0.0,0.0,44,0.00,,,0.72,WeatherCatV1.15B25,2013-09-03 23:53:00,
2013-09-03 18:58:00,95.5,71.4,29.78,WNW,300,0.0,0.0,46,0.00,,,0.72,WeatherCatV1.15B25,2013-09-03 23:58:00,
2013-09-03 19:03:00,95.2,72.4,29.78,WNW,299,0.0,0.0,48,0.00,,,0.72,WeatherCatV1.15B25,2013-09-04 00:03:00,
2013-09-03 19:08:00,94.9,70.8,29.78,WNW,299,0.0,0.0,46,0.00,,,0.72,WeatherCatV1.15B25,2013-09-04 00:08:00,
2013-09-03 19:13:00,94.5,72.3,29.78,WNW,300,0.0,0.0,49,0.00,,,0.72,WeatherCatV1.15B25,2013-09-04 00:13:00,
2013-09-03 19:18:00,94.2,72.1,29.78,WNW,300,0.0,0.0,49,0.00,,,0.72,WeatherCatV1.15B25,2013-09-04 00:18:00,
2013-09-03 19:23:00,93.8,72.3,29.78,WNW,300,0.0,0.0,50,0.00,,,0.72,WeatherCatV1.15B25,2013-09-04 00:23:00,
2013-09-03 19:28:00,93.4,72.5,29.78,WNW,300,0.0,0.0,51,0.00,,,0.72,WeatherCatV1.15B25,2013-09-04 00:28:00,
2013-09-03 19:33:00,93.1,73.4,29.79,WNW,300,0.0,0.0,53,0.00,,,0.72,WeatherCatV1.15B25,2013-09-04 00:33:00,
2013-09-03 19:38:00,92.6,72.4,29.79,WNW,300,0.0,0.0,52,0.00,,,0.72,WeatherCatV1.15B25,2013-09-04 00:38:00,
2013-09-03 19:43:00,92.2,73.1,29.79,WNW,300,0.0,0.0,54,0.00,,,0.72,WeatherCatV1.15B25,2013-09-04 00:43:00,
2013-09-03 19:48:00,91.7,73.7,29.79,WNW,300,0.0,0.0,56,0.00,,,0.72,WeatherCatV1.15B25,2013-09-04 00:48:00,
2013-09-03 19:53:00,91.2,73.8,29.79,WNW,300,0.0,0.0,57,0.00,,,0.72,WeatherCatV1.15B25,2013-09-04 00:53:00,
2013-09-03 19:58:00,90.6,72.2,29.79,WNW,300,0.0,0.0,55,0.00,,,0.72,WeatherCatV1.15B25,2013-09-04 00:58:00,
2013-09-03 20:03:00,90.1,72.2,29.80,WNW,300,0.0,0.0,56,0.00,,,0.72,WeatherCatV1.15B25,2013-09-04 01:03:00,
2013-09-03 20:08:00,89.5,72.2,29.80,WNW,299,0.0,0.0,57,0.00,,,0.72,WeatherCatV1.15B25,2013-09-04 01:08:00,
2013-09-03 20:13:00,88.8,73.1,29.80,WNW,300,0.0,0.0,60,0.00,,,0.72,WeatherCatV1.15B25,2013-09-04 01:13:00,
2013-09-03 20:18:00,88.2,73.0,29.80,WNW,300,0.0,0.0,61,0.00,,,0.72,WeatherCatV1.15B25,2013-09-04 01:18:00,
2013-09-03 20:23:00,87.7,73.5,29.80,WNW,300,0.0,0.0,63,0.00,,,0.72,WeatherCatV1.15B25,2013-09-04 01:23:00,
2013-09-03 20:28:00,87.2,73.0,29.80,WNW,299,0.0,0.0,63,0.00,,,0.72,WeatherCatV1.15B25,2013-09-04 01:28:00,
2013-09-03 20:33:00,86.7,73.0,29.80,WNW,299,0.0,0.0,64,0.00,,,0.72,WeatherCatV1.15B25,2013-09-04 01:33:00,
2013-09-03 20:38:00,86.3,73.1,29.80,WNW,300,0.0,0.0,65,0.00,,,0.72,WeatherCatV1.15B25,2013-09-04 01:38:00,
2013-09-03 20:43:00,85.9,73.2,29.80,WNW,300,0.0,0.0,66,0.00,,,0.72,WeatherCatV1.15B25,2013-09-04 01:43:00,
2013-09-03 20:48:00,85.6,72.9,29.81,WNW,299,0.0,0.0,66,0.00,,,0.72,WeatherCatV1.15B25,2013-09-04 01:48:00,
2013-09-03 20:53:00,85.2,73.0,29.81,WNW,300,0.0,0.0,67,0.00,,,0.72,WeatherCatV1.15B25,2013-09-04 01:53:00,
2013-09-03 20:58:00,84.9,72.7,29.81,WNW,300,0.0,0.0,67,0.00,,,0.72,WeatherCatV1.15B25,2013-09-04 01:58:00,
2013-09-03 21:03:00,84.7,71.6,29.81,WNW,300,0.0,0.0,65,0.00,,,0.72,WeatherCatV1.15B25,2013-09-04 02:03:00,
2013-09-03 21:08:00,84.4,72.7,29.81,WNW,300,0.0,0.0,68,0.00,,,0.72,WeatherCatV1.15B25,2013-09-04 02:08:00,
2013-09-03 21:13:00,84.1,72.4,29.81,WNW,300,0.0,0.0,68,0.00,,,0.72,WeatherCatV1.15B25,2013-09-04 02:13:00,
2013-09-03 21:18:00,83.8,72.5,29.82,WNW,300,0.0,0.0,69,0.00,,,0.72,WeatherCatV1.15B25,2013-09-04 02:18:00,
2013-09-03 21:23:00,83.6,72.8,29.82,WNW,300,0.0,0.0,70,0.00,,,0.72,WeatherCatV1.15B25,2013-09-04 02:23:00,
2013-09-03 21:28:00,83.4,71.7,29.82,WNW,300,0.0,0.0,68,0.00,,,0.72,WeatherCatV1.15B25,2013-09-04 02:28:00,
2013-09-03 21:33:00,83.2,71.9,29.83,WNW,300,0.0,0.0,69,0.00,,,0.72,WeatherCatV1.15B25,2013-09-04 02:33:00,
2013-09-03 21:38:00,83.0,71.3,29.83,WNW,300,0.0,0.0,68,0.00,,,0.72,WeatherCatV1.15B25,2013-09-04 02:38:00,
2013-09-03 21:43:00,82.8,70.7,29.83,WNW,300,0.0,0.0,67,0.00,,,0.72,WeatherCatV1.15B25,2013-09-04 02:43:00,
2013-09-03 21:48:00,82.7,71.0,29.83,WNW,300,0.0,0.0,68,0.00,,,0.72,WeatherCatV1.15B25,2013-09-04 02:48:00,
2013-09-03 21:53:00,82.5,71.7,29.83,WNW,300,0.0,0.0,70,0.00,,,0.72,WeatherCatV1.15B25,2013-09-04 02:53:00,
2013-09-03 21:58:00,82.4,71.2,29.83,WNW,300,0.0,0.0,69,0.00,,,0.72,WeatherCatV1.15B25,2013-09-04 02:58:00,
2013-09-03 22:03:00,82.2,71.0,29.83,WNW,303,0.0,0.0,69,0.00,,,0.72,WeatherCatV1.15B25,2013-09-04 03:03:00,
2013-09-03 22:08:00,82.0,70.4,29.83,WNW,303,0.0,1.0,68,0.00,,,0.72,WeatherCatV1.15B25,2013-09-04 03:08:00,
2013-09-03 22:13:00,81.8,70.2,29.83,WNW,303,0.0,0.0,68,0.00,,,0.72,WeatherCatV1.15B25,2013-09-04 03:13:00,
2013-09-03 22:18:00,81.7,69.6,29.83,WNW,303,0.0,0.0,67,0.00,,,0.72,WeatherCatV1.15B25,2013-09-04 03:18:00,
2013-09-03 22:23:00,81.6,70.0,29.83,NW,310,0.0,0.0,68,0.00,,,0.72,WeatherCatV1.15B25,2013-09-04 03:23:00,
2013-09-03 22:28:00,81.5,69.9,29.83,NW,310,0.0,0.0,68,0.00,,,0.72,WeatherCatV1.15B25,2013-09-04 03:28:00,
2013-09-03 22:33:00,81.3,68.8,29.83,NW,310,0.0,0.0,66,0.00,,,0.72,WeatherCatV1.15B25,2013-09-04 03:33:00,
2013-09-03 22:38:00,81.2,67.8,29.83,NNE,31,0.0,2.0,64,0.00,,,0.72,WeatherCatV1.15B25,2013-09-04 03:38:00,
2013-09-03 22:43:00,81.2,66.9,29.83,NNE,31,0.0,0.0,62,0.00,,,0.72,WeatherCatV1.15B25,2013-09-04 03:43:00,
2013-09-03 22:48:00,81.1,67.3,29.84,NE,39,0.0,0.0,63,0.00,,,0.72,WeatherCatV1.15B25,2013-09-04 03:48:00,
2013-09-03 22:53:00,81.1,66.4,29.84,NE,47,0.0,3.0,61,0.00,,,0.72,WeatherCatV1.15B25,2013-09-04 03:53:00,
2013-09-03 22:58:00,81.3,66.5,29.84,NE,43,0.0,2.0,61,0.00,,,0.72,WeatherCatV1.15B25,2013-09-04 03:58:00,
2013-09-03 23:01:00,81.4,65.7,29.83,NE,40,2.0,7.0,59,0.00,,,0.72,WeatherCatV1.15B25,2013-09-04 04:01:00,
2013-09-03 23:06:00,81.5,66.2,29.83,ENE,61,0.0,2.0,60,0.00,,,0.72,WeatherCatV1.15B25,2013-09-04 04:06:00,
2013-09-03 23:11:00,81.6,65.9,29.83,ENE,72,0.0,2.0,59,0.00,,,0.72,WeatherCatV1.15B25,2013-09-04 04:11:00,
2013-09-03 23:16:00,81.7,65.0,29.84,East,86,3.0,4.0,57,0.00,,,0.72,WeatherCatV1.15B25,2013-09-04 04:16:00,
2013-09-03 23:21:00,81.9,65.1,29.84,ENE,63,0.0,1.0,57,0.00,,,0.72,WeatherCatV1.15B25,2013-09-04 04:21:00,
2013-09-03 23:26:00,82.0,64.7,29.84,East,99,0.0,0.0,56,0.00,,,0.72,WeatherCatV1.15B25,2013-09-04 04:26:00,
2013-09-03 23:31:00,82.1,64.8,29.84,NE,56,0.0,0.0,56,0.00,,,0.72,WeatherCatV1.15B25,2013-09-04 04:31:00,
2013-09-03 23:36:00,82.2,64.4,29.84,East,82,0.0,0.0,55,0.00,,,0.72,WeatherCatV1.15B25,2013-09-04 04:36:00,
2013-09-03 23:41:00,82.2,65.4,29.84,East,79,0.0,1.0,57,0.00,,,0.72,WeatherCatV1.15B25,2013-09-04 04:41:00,
2013-09-03 23:46:00,82.2,65.4,29.84,East,90,0.0,1.0,57,0.00,,,0.72,WeatherCatV1.15B25,2013-09-04 04:46:00,
2013-09-03 23:51:00,82.2,65.4,29.84,ENE,68,0.0,0.0,57,0.00,,,0.72,WeatherCatV1.15B25,2013-09-04 04:51:00,
2013-09-03 23:56:00,82.4,66.1,29.84,East,91,0.0,3.0,58,0.00,,,0.72,WeatherCatV1.15B25,2013-09-04 04:56:00,